TimeMST,TemperatureF,Dew PointF,Humidity,Sea Level PressureIn,VisibilityMPH,Wind Direction,Wind SpeedMPH,Gust SpeedMPH,PrecipitationIn,Events,Conditions,WindDirDegrees,DateUTC
12:53 AM,9.0,1.9,73,30.20,10.0,East,15.0,24.2,N/A,,Clear,100,2013-01-24 07:53:00
1:53 AM,9.0,3.0,77,30.17,10.0,East,11.5,-,N/A,,Mostly Cloudy,90,2013-01-24 08:53:00
2:53 AM,10.9,3.9,73,30.15,10.0,East,12.7,-,N/A,,Mostly Cloudy,90,2013-01-24 09:53:00
3:53 AM,12.9,6.1,74,30.10,10.0,East,8.1,-,N/A,,Clear,90,2013-01-24 10:53:00
4:53 AM,14.0,8.1,77,30.05,10.0,ESE,8.1,-,N/A,,Mostly Cloudy,110,2013-01-24 11:53:00
5:53 AM,15.1,9.0,77,30.04,10.0,ESE,5.8,-,N/A,,Overcast,110,2013-01-24 12:53:00
6:53 AM,14.0,8.1,77,30.01,10.0,ENE,9.2,-,N/A,,Overcast,70,2013-01-24 13:53:00
7:53 AM,16.0,10.0,77,29.98,10.0,East,8.1,-,0.00,,Overcast,80,2013-01-24 14:53:00
8:53 AM,17.1,12.0,81,29.98,10.0,ENE,8.1,-,0.00,,Overcast,60,2013-01-24 15:53:00
9:53 AM,19.0,12.9,77,29.99,10.0,NE,3.5,-,N/A,,Mostly Cloudy,50,2013-01-24 16:53:00
10:53 AM,21.0,14.0,74,29.98,10.0,Calm,Calm,-,N/A,,Clear,0,2013-01-24 17:53:00
11:53 AM,23.0,16.0,74,29.96,10.0,WSW,5.8,-,N/A,,Clear,250,2013-01-24 18:53:00
12:53 PM,24.1,17.1,75,29.95,10.0,West,9.2,-,N/A,,Clear,270,2013-01-24 19:53:00
1:53 PM,27.0,19.0,72,29.95,10.0,WSW,13.8,25.3,N/A,,Clear,250,2013-01-24 20:53:00
2:53 PM,28.0,19.9,72,29.99,10.0,West,8.1,-,N/A,,Scattered Clouds,270,2013-01-24 21:53:00
3:53 PM,27.0,19.9,75,30.03,10.0,West,12.7,-,N/A,,Clear,270,2013-01-24 22:53:00
4:53 PM,26.1,19.0,75,30.05,10.0,WSW,5.8,-,N/A,,Clear,250,2013-01-24 23:53:00
5:53 PM,21.9,18.0,85,30.07,10.0,SSW,3.5,-,N/A,,Clear,200,2013-01-25 00:53:00
6:53 PM,19.9,16.0,85,30.10,10.0,ESE,4.6,-,N/A,,Clear,120,2013-01-25 01:53:00
7:53 PM,21.9,18.0,85,30.11,10.0,South,8.1,-,N/A,,Clear,190,2013-01-25 02:53:00
8:53 PM,19.9,17.1,89,30.12,10.0,WSW,8.1,-,N/A,,Clear,240,2013-01-25 03:53:00
9:53 PM,19.0,15.1,85,30.14,10.0,SSW,9.2,-,N/A,,Clear,200,2013-01-25 04:53:00
10:53 PM,21.0,16.0,81,30.14,10.0,WSW,6.9,-,N/A,,Clear,250,2013-01-25 05:53:00
11:53 PM,19.0,14.0,81,30.15,10.0,WSW,9.2,-,N/A,,Clear,240,2013-01-25 06:53:00